Location: Pedimozza
(42.0500°N, 9.3500°E)
Time: 22:14:20
(UTC+00:00)

Cosmos 1656 - Pass Details

Date: 19 August 2019
Orbit: 797 x 850 km, 71.1° (Epoch: 19 September)

Event Time Altitude Azimuth Distance (km) Brightness Sun altitude
Rises 21:07:29 0° 334° (NNW) 3,418 8.1 -26.7°
Reaches altitude 10° 21:09:57 10° 332° (NNW) 2,475 7.1 -27.0°
Maximum altitude 21:15:37 72° 249° (WSW) 881 3.7 -27.6°
Enters shadow 21:15:49 72° 231° (SW) 884 3.6 -27.6°
